Regional Weather Roundup
Issued by NWS

Home | Current Version | Previous Version | Text Only | Print | Product List | Glossary On
Versions: 1 2 3 4 5 6 7 8 9 10 11 12 13 14 15 16 17 18 19 20 21 22 23 24 25 26 27 28 29 30 31 32 33 34 35 36 37 38 39 40 41 42 43 44 45 46 47 48 49 50
000
ASUS43 KDTX 241101
RWRMI
MICHIGAN HOURLY REGIONAL WEATHER ROUNDUP
NATIONAL WEATHER SERVICE DETROIT/PONTIAC MI
700 AM EDT WED MAY 24 2017

NOTE: "FAIR" INDICATES FEW OR NO CLOUDS BELOW 12,000 FEET WITH NO
SIGNIFICANT WEATHER AND/OR OBSTRUCTION TO VISIBILITY.

MIZ047>049-052>055-059>063-066>070-074>076-081>083-241200-
SOUTHEAST LOWER MICHIGAN

CITY           SKY/WX    TMP DP  RH WIND       PRES   REMARKS
ADRIAN         MOCLDY    56  52  86 E9        29.59F
ALMA           PTCLDY    55  54  96 N6        29.65S
ANN ARBOR      MOCLDY    56  52  86 NE7       29.60S
BAD AXE        CLOUDY    52  50  93 NE3       29.67S
CARO           CLOUDY    54  52  94 NE5       29.64S
DETROIT CITY   MOCLDY    56  52  86 NE6       29.62S
DETROIT        CLOUDY    58  50  75 NE9       29.61S
FLINT          PTCLDY    53  51  93 E6        29.63S
GROSSE ILE     CLOUDY    56  52  86 NE8       29.60S
HILLSDALE      CLOUDY    54  50  87 E3        29.59S
HOWELL         PTCLDY    52  49  90 NE3       29.61S

CITY           SKY/WX    TMP DP  RH WIND       PRES   REMARKS
JACKSON        MOCLDY    54  52  93 E5        29.60S FOG
LAMBERTVILLE   CLOUDY    57  53  85 E3        29.59S
LANSING        CLOUDY    54  50  86 NE7       29.62S
LAPEER         FAIR      54  51  91 E3        29.63F
MASON          PTCLDY    53  52  97 NE6       29.61S
MONROE         MOCLDY    57  51  81 NE3       29.59S
MT. CLEMENS    CLOUDY    54  54 100 CALM      29.62R
PONTIAC        PTCLDY    54  50  86 NE5       29.62R
PORT HOPE        N/A     52  50  93 CALM      29.66F
PORT HURON     CLOUDY    52  48  87 N3        29.64S FOG
TRI CITIES     CLOUDY    54  54 100 NE13      29.66S FOG
MIDLAND        CLOUDY    55  53  95 NE6       29.66S FOG
TROY           CLOUDY    56  50  80 NE7       29.65R
SAGINAW HB     CLOUDY    54  50  87 N5        29.65S
$$
MIZ043>046-050>051-056>058-064>065-071>073-077>080-241200-
SOUTHWEST LOWER MICHIGAN

CITY           SKY/WX    TMP DP  RH WIND       PRES   REMARKS
BATTLE CREEK   CLOUDY    55  53  93 NE7       29.59F
BENTON HARBOR  CLOUDY    57  52  83 E9        29.56F
BIG RAPIDS     CLOUDY    54  52  92 E5        29.65F
COLDWATER      CLOUDY    55  53  92 E6        29.57F
FREMONT        CLOUDY    55  54  95 NE6       29.64S
HOLLAND        CLOUDY    57  53  86 NE6       29.61S
GRAND RAPIDS   CLOUDY    57  54  89 E13       29.61S
IONIA          FAIR      55  53  92 NE8       29.61F
KALAMAZOO      CLOUDY    56  51  84 NE3       29.59S
LUDINGTON      DRIZZLE   52  52 100 CALM      29.67R
MARSHALL       PTCLDY    54  54  99 CALM      29.59S
MOUNT PLEASANT CLOUDY    55  54  97 N5        29.66S FOG
MUSKEGON       CLOUDY    56  54  93 N9        29.62F
SOUTH HAVEN    CLOUDY    56  55  95 E6        29.58S
$$
MIZ016>042-241200-
NORTHERN LOWER MICHIGAN

CITY           SKY/WX    TMP DP  RH WIND       PRES   REMARKS
ALPENA         CLOUDY    50  50 100 NE5       29.73S FOG
BEAVER ISLAND  RAIN      48  47  97 E9        29.73S
BELLAIRE       LGT RAIN  51  49  94 CALM      29.71R
CADILLAC       RAIN      52  51  97 NE3       29.68R
CHARLEVOIX     CLOUDY    50  50 100 NE5       29.73S
GAYLORD        LGT RAIN  53  50  89 NE5       29.71R VSB 1/2
GRAYLING       CLOUDY    52  52  99 NE5       29.71S
HARBOR SPRINGS LGT RAIN  49  49 100 E8        29.72R
HOUGHTON LAKE  FOG       53  52  96 NE6       29.70R VSB 3/4
MANISTEE       LGT RAIN  53  52  96 E6        29.67S
OSCODA         FOG       51  50  98 N9        29.70S VSB 3/4
PELLSTON       LGT RAIN  49  46  90 NE5       29.73S
ROGERS CITY    CLOUDY    46  45  96 CALM      29.76R FOG
TRAVERSE CITY  LGT RAIN  50  49  96 CALM      29.69S FOG
$$
MIZ007>008-015-241200-
EASTERN UPPER MICHIGAN

CITY           SKY/WX    TMP DP  RH WIND       PRES   REMARKS
KINROSS        LGT RAIN  50  47  89 E13       29.75S
MACKINAC ISLAN LGT RAIN  48  48 100 E8        29.75R
NEWBERRY       LGT RAIN  46  45  97 NE5       29.75R
S. S. MARIE    LGT RAIN  51  46  83 E7        29.76R
MUNISING         N/A     42  42 100 N6        29.76S
$$
MIZ004>006-011>014-085-241200-
CENTRAL UPPER MICHIGAN

CITY           SKY/WX    TMP DP  RH WIND       PRES   REMARKS
MANISTIQUE     CLOUDY    47  44  90 NE5       29.73S
ESCANABA       CLOUDY    46  45  96 N6        29.74R
MENOMINEE      CLOUDY    47  46  97 NE7       29.73R
SAWYER-GWINN   RAIN      41  41 100 N12       29.77R
$$
MIZ001>003-009>011-084-241200-
WESTERN UPPER MICHIGAN

CITY           SKY/WX    TMP DP  RH WIND       PRES   REMARKS
IRON MOUNTAIN  LGT RAIN  47  43  86 N7        29.73S
HOUGHTON       CLOUDY    48  42  80 N5        29.80S
COPPER HARBOR    N/A     45  40  82 VRB3      29.81F
IRONWOOD       CLOUDY    43  42  97 CALM      29.81S
$$

ABBREVIATIONS USED IN REMARKS
   TC - TEMPERATURE IN CELSIUS
  WCI - WIND CHILL INDEX
   HX - HEAT INDEX
  VSB - VISIBILITY




USA.gov is the U.S. government's official web portal to all federal, state and local government web resources and services.